Regional Weather Roundup
Issued by NWS

Home | Current Version | Previous Version | Text Only | Print | Product List | Glossary On
Versions: 1 2 3 4 5 6 7 8 9 10 11 12 13 14 15 16 17 18 19 20 21 22 23 24 25 26 27 28 29 30 31 32 33 34 35 36 37 38 39 40 41 42 43 44 45 46 47 48 49 50
000
ASHW40 PHFO 271744
RWRHI

WEATHER ROUNDUP FOR HAWAII
NATIONAL WEATHER SERVICE HONOLULU HI
700 AM HST THU APR 27 2017

THIS IS AN AUTOMATED REPORT THAT HAS NOT BEEN QUALITY CONTROLLED.

NOTE..."FAIR" INDICATES FEW OR NO CLOUDS BELOW 12,000 FEET WITH NO
SIGNIFICANT WEATHER AND/OR OBSTRUCTIONS TO VISIBILITY.

* - THESE SITES REPORT LIMITED FIELDS

HIZ001>004-271800-
KAUAI-NIIHAU-

CITY           SKY/WX    TMP DP  RH WIND       PRES   REMARKS
LIHUE APT      LGT RAIN  70  67  90 W6        30.07R FOG
PORT ALLEN*      N/A     66 N/A N/A NE6         N/A
POIPU*           N/A     70 N/A N/A N3          N/A
PRINCEVILLE*     N/A     68 N/A N/A S2          N/A
KOKOLE POINT*  NOT AVBL
MOLOAA DAIRY*    N/A     70  68  94 CALM        N/A
WAIMEA HTS*      N/A     75  61  60 N1          N/A
PUU OPAE*      NOT AVBL
PUU LUA*       NOT AVBL
MAKAHA RIDGE*    N/A     70  59  68 E1          N/A
$$

HIZ005>011-271800-
OAHU-

CITY           SKY/WX    TMP DP  RH WIND       PRES   REMARKS
HONOLULU       MOSUNNY   75  67  76 N5        30.05R
KALAELOA       SUNNY     73  66  78 NE3       30.06R
KANEOHE MCB    NOT AVBL
WHEELER FIELD  MOSUNNY   68  67  96 CALM      30.05
BELLOWS*         N/A    N/A N/A N/A E12         N/A
KAHUKU*          N/A    N/A N/A N/A E2          N/A
WHEELER*         N/A    N/A N/A N/A SW1         N/A
WAIANAE HARBOR   N/A    N/A N/A N/A N1          N/A
DILLINGHAM*      N/A     88  84  89 CALM        N/A  HX 112
KAHUKU TRN*      N/A     82  79  89 NW1G7       N/A  HX  93
KAWAILOA*        N/A     66  64  94 NE3         N/A
KII*             N/A     75  66  73 E12         N/A
MAKUA RANGE*     N/A     66  59  77 W6          N/A
OAHU FOREST NW   N/A     70  63  78 E10G20      N/A
SCHOFIELD BRK*   N/A     63  59  88 NE1         N/A
SCHOFIELD S*   NOT AVBL
WAIANAE VLY*     N/A     64  59  82 NW1         N/A
KUAOKALA*        N/A     73  66  78 E3          N/A
HONOULIUULI*   NOT AVBL
MOKUOLOE IS*   NOT AVBL
PALEHUA*         N/A     70  66  88 NE5G12      N/A
WAIAWA PHB*    NOT AVBL
$$

HIZ012>013-271800-
MOLOKAI-

CITY           SKY/WX    TMP DP  RH WIND       PRES   REMARKS
MOLOKAI AIRPT  SUNNY     64  62  93 NE5       30.05R
KALAUPAPA      NOT AVBL
MAKAPULAPAI*     N/A     75  68  78 E12G17      N/A
MOLOKAI 1*       N/A     61  50  67 E1          N/A
PUU ALII*        N/A     57  55  93 E2G10       N/A
$$

HIZ016-271800-
KAHOOLAWE-

CITY           SKY/WX    TMP DP  RH WIND       PRES   REMARKS
KAHOOLAWE*     NOT AVBL
HAKIOAWA*        N/A     74  67  77 MISG      30.46R
HONOKANAIA*      N/A     71  61  71 N6G12     29.95S
KANELOA*         N/A     72  64  78 NE9G18    30.07R
KEALIALALO*    NOT AVBL
LUA MAKIKA*    NOT AVBL
$$

HIZ014>015-271800-
LANAI-

CITY           SKY/WX    TMP DP  RH WIND       PRES   REMARKS
LANAI CITY     FAIR      69  63  81 N5        30.09R
LANAI 1*         N/A     72  64  78 NE10        N/A
$$

HIZ017>028-271800-
MAUI-

CITY           SKY/WX    TMP DP  RH WIND       PRES   REMARKS
KAHULUI        MOSUNNY   70  64  81 SE5       30.03R
KAPALUA-W MAUI MOSUNNY   72  59  64 E8        30.04
HANA AIRPORT   NOT AVBL
HANA*            N/A     73 N/A N/A SE3         N/A
HALEAKALA SUMM   N/A     54  -4   9 NE9G23      N/A
MAALAEA BAY*     N/A     73 N/A N/A NE3         N/A
HALEAKALA*     NOT AVBL
KAUPO GAP*     NOT AVBL
KULA 1*          N/A    N/A N/A N/A E5          N/A
$$

HIZ023>026-271800-
BIG ISLAND OF HAWAII COAST AND LOWER SLOPES-

CITY           SKY/WX    TMP DP  RH WIND       PRES   REMARKS
KAILUA KONA    SUNNY     76  67  73 SE5       30.01R
HILO           PTSUNNY   70  57  63 S5        30.03R
HONOKAA*         N/A     64 N/A N/A VRB1        N/A
KAWAIHAE MWT*    N/A     75 N/A N/A E3          N/A
KAWAIHAE*        N/A     79 N/A N/A N2        30.02R
SOUTH POINT*     N/A     70 N/A N/A NW10        N/A
UPOLU AIRPORT* NOT AVBL
KAMUELA*       SUNNY     68  54  60 CALM      30.13S
HAKALAU*         N/A     51  40  65 SW8         N/A
KALOKO-HONOKO*   N/A     75  66  73 E3        30.01R
PALI 2*          N/A     66  54  63 S8          N/A
KEALAKOMO*       N/A     73  59  60 NE3         N/A
KAUPULEHU*       N/A     75  63  64 W3          N/A
KAPAPALA*        N/A     67  53  59 VRB7        N/A
LOWER KAHUKU*    N/A     57  54  88 N2G8        N/A
PUHE CS*         N/A     73  52  46 E3          N/A
PUHO CS*         N/A     69  32  25 E2          N/A
PTA KEAMUKU*     N/A     61  52  72 CALM        N/A
WAIKOLOA*        N/A     79  57  47 NE2G10      N/A
$$

HIZ027>028-271800-
BIG ISLAND OF HAWAII INTERIOR AND SUMMMITS-

CITY           SKY/WX    TMP DP  RH WIND       PRES   REMARKS
BRADSHAW FIELD NOT AVBL
MK VISITOR CEN   N/A     52   7  16 SW1         N/A
MAUNA KEA*       N/A     43 -11  10 N8          N/A
MAUNA LOA*       N/A     48 -20   5 MISG        N/A
MAUNA LOA 1*   NOT AVBL
PTA KIPUKA*      N/A     70  64  83 N1          N/A
PTA RANGE 17*    N/A     70  57  64 SE13G21     N/A
PTA WEST*        N/A     52  36  54 SE12G21     N/A
NENE CABIN*      N/A     46  37  71 NE7G14      N/A
AHUMOA*          N/A     55  42  62 VRB3G9      N/A
PTA PORTABLE*  NOT AVBL
PUU MALI*        N/A     54  37  54 W1G8        N/A
$$

HIC003-271800-
NORTHWEST ISLANDS-

CITY           SKY/WX    TMP DP  RH WIND       PRES   REMARKS
MIDWAY ISLAND  CLOUDY    63  48  59 N12G17    30.32R
MIDWAY NOS*      N/A     64 N/A N/A MISG      30.30S
FRENCH FRIGATE NOT AVBL
$$

PHZ110>124-180-271800-
BUOY REPORTS

STATION/POSITION TIME  TEMP    WIND        PRES    WAVE   SWELL
                       AIR SEA DIR/SP/G            HT/PER HT/DIR
                 (UTC) (F)     (DEG/KT/KT) (MB)    (FT/S) (FT/D)
BUOY 51001       1710   75 78  150/  8/ 10 1017.9
BUOY 51101       1650   76 77  160/  8/ 10 1018.0R   5/ 9   5/150
BUOY 51100       NOT AVBL
BUOY 51002       1710   77 78   80/ 17/ 21 1015.4
BUOY 51003       1650   75 79   10/  4/  6 1016.5R   6/ 8   5/ 90
BUOY 51004       1650      78   70/ 14/ 17 1015.6R   7/ 8   5/ 90
BARBERS PT BUOY  NOT AVBL
WAIMEA BAY BUOY  1632      77                N/A     3/11   2/310
KAILUA BAY BUOY  1634      78                N/A     4/ 5   2/ 60
LANAI BUOY       1645      79                N/A     3/17   2/210
BARBERS PT 2     NOT AVBL
PAUWELA MAUI     1639      77                N/A     4/11   2/320
HILO             1642      78                N/A     5/11   3/350
KANEOHE BAY BUOY 1625      78                N/A     4/ 6   2/ 10
HANALEI KAUAI    1652      78                N/A     4/11   2/320
KAHULUI HARBOR   1706   74 78   10/  6/ 10 1017.0
HONOLULU HARBOR  1706   76 79  110/  3/  5 1018.3
KILO NALU        NOT AVBL
HILO HARBOR      1706   73 76  170/  4/  6 1016.7
MOKUOLOE         1636   77 79  110/  6/  9 1017.4R
NAWILIWILI       1718   70      40/  2/  3 1017.8
WHOTS BUOY       NOT AVBL
BUOY 51028       NOT AVBL
$$

......................KEY........................................
  SKY/WX - SKY CONDITIONS/PRESENT WEATHER
  TMP    - TEMPERATURE IN FAHRENHEIT
  DWPT   - DEWPOINT IN FAHRENHEIT
  RH     - RELATIVE HUMIDITY IN PERCENT
  WIND   - DIRECTION AND SPEED /MPH FOR ISLANDS...KTS FOR BUOYS/
  PRES   - MEAN SEA LEVEL PRESSURE IN INCHES OF HG
  VSB    - VISIBILITY IN MILES
  HX     - HEAT INDEX
  WCI    - WIND CHILL INDEX
  VRB    - VARIABLE WIND DIRECTION
  N/A    - NOT AVAILABLE



USA.gov is the U.S. government's official web portal to all federal, state and local government web resources and services.